Year,Month,Day,Hour,Minute,Value (Times are PST for windspeed in km/hr)
2017,01,31,00,00,0.00
2017,01,31,00,01,0.00
2017,01,31,00,02,0.00
2017,01,31,00,03,0.00
2017,01,31,00,04,0.00
2017,01,31,00,05,1.50
2017,01,31,00,06,2.50
2017,01,31,00,07,1.60
2017,01,31,00,08,1.50
2017,01,31,00,09,1.40
2017,01,31,00,10,2.10
2017,01,31,00,11,0.10
2017,01,31,00,12,0.00
2017,01,31,00,13,0.00
2017,01,31,00,14,0.00
2017,01,31,00,15,0.00
2017,01,31,00,16,0.00
2017,01,31,00,17,0.00
2017,01,31,00,18,0.00
2017,01,31,00,19,0.00
2017,01,31,00,20,0.00
2017,01,31,00,21,0.00
2017,01,31,00,22,0.00
2017,01,31,00,23,0.00
2017,01,31,00,24,0.00
2017,01,31,00,25,1.50
2017,01,31,00,26,0.00
2017,01,31,00,27,0.00
2017,01,31,00,28,0.00
2017,01,31,00,29,0.00
2017,01,31,00,30,0.00
2017,01,31,00,31,0.00
2017,01,31,00,32,0.00
2017,01,31,00,33,0.00
2017,01,31,00,34,0.00
2017,01,31,00,35,0.00
2017,01,31,00,36,0.00
2017,01,31,00,37,0.00
2017,01,31,00,38,2.00
2017,01,31,00,39,1.00
2017,01,31,00,40,0.00
2017,01,31,00,41,0.00
2017,01,31,00,42,0.00
2017,01,31,00,43,0.00
2017,01,31,00,44,0.00
2017,01,31,00,45,0.00
2017,01,31,00,46,0.00
2017,01,31,00,47,0.00
2017,01,31,00,48,0.00
2017,01,31,00,49,0.00
2017,01,31,00,50,0.30
2017,01,31,00,51,1.40
2017,01,31,00,52,0.00
2017,01,31,00,53,0.00
2017,01,31,00,54,0.00
2017,01,31,00,55,0.00
2017,01,31,00,56,0.00
2017,01,31,00,57,0.00
2017,01,31,00,58,0.00
2017,01,31,00,59,0.00
2017,01,31,01,00,0.00
2017,01,31,01,01,0.00
2017,01,31,01,02,0.00
2017,01,31,01,03,0.00
2017,01,31,01,04,0.00
2017,01,31,01,05,2.20
2017,01,31,01,06,0.20
2017,01,31,01,07,0.00
2017,01,31,01,08,0.00
2017,01,31,01,09,0.00
2017,01,31,01,10,0.00
2017,01,31,01,11,0.00
2017,01,31,01,12,0.00
2017,01,31,01,13,0.00
2017,01,31,01,14,1.50
2017,01,31,01,15,0.50
2017,01,31,01,16,0.00
2017,01,31,01,17,0.00
2017,01,31,01,18,0.00
2017,01,31,01,19,0.00
2017,01,31,01,20,0.00
2017,01,31,01,21,0.00
2017,01,31,01,22,0.00
2017,01,31,01,23,0.00
2017,01,31,01,24,0.00
2017,01,31,01,25,0.00
2017,01,31,01,26,0.00
2017,01,31,01,27,0.00
2017,01,31,01,28,0.00
2017,01,31,01,29,0.00
2017,01,31,01,30,0.00
2017,01,31,01,31,0.00
2017,01,31,01,32,0.00
2017,01,31,01,33,0.00
2017,01,31,01,34,0.00
2017,01,31,01,35,0.00
2017,01,31,01,36,0.00
2017,01,31,01,37,0.00
2017,01,31,01,38,0.00
2017,01,31,01,39,0.00
2017,01,31,01,40,0.00
2017,01,31,01,41,0.00
2017,01,31,01,42,0.00
2017,01,31,01,43,0.00
2017,01,31,01,44,0.00
2017,01,31,01,45,0.00
2017,01,31,01,46,0.00
2017,01,31,01,47,0.00
2017,01,31,01,48,0.00
2017,01,31,01,49,0.00
2017,01,31,01,50,0.00
2017,01,31,01,51,0.00
2017,01,31,01,52,0.00
2017,01,31,01,53,0.00
2017,01,31,01,54,0.00
2017,01,31,01,55,0.00
2017,01,31,01,56,0.00
2017,01,31,01,57,0.00
2017,01,31,01,58,0.00
2017,01,31,01,59,0.00
2017,01,31,02,00,0.00
2017,01,31,02,01,0.00
2017,01,31,02,02,0.00
2017,01,31,02,03,0.00
2017,01,31,02,04,0.00
2017,01,31,02,05,0.00
2017,01,31,02,06,0.00
2017,01,31,02,07,0.00
2017,01,31,02,08,0.60
2017,01,31,02,09,3.60
2017,01,31,02,10,4.00
2017,01,31,02,11,2.90
2017,01,31,02,12,3.50
2017,01,31,02,13,3.80
2017,01,31,02,14,2.30
2017,01,31,02,15,2.60
2017,01,31,02,16,2.20
2017,01,31,02,17,1.80
2017,01,31,02,18,1.60
2017,01,31,02,19,2.80
2017,01,31,02,20,1.90
2017,01,31,02,21,0.00
2017,01,31,02,22,1.50
2017,01,31,02,23,0.30
2017,01,31,02,24,2.70
2017,01,31,02,25,2.50
2017,01,31,02,26,2.00
2017,01,31,02,27,0.70
2017,01,31,02,28,1.30
2017,01,31,02,29,0.80
2017,01,31,02,30,0.00
2017,01,31,02,31,0.00
2017,01,31,02,32,0.00
2017,01,31,02,33,0.00
2017,01,31,02,34,0.00
2017,01,31,02,35,0.00
2017,01,31,02,36,0.00
2017,01,31,02,37,0.00
2017,01,31,02,38,0.00
2017,01,31,02,39,0.00
2017,01,31,02,40,0.00
2017,01,31,02,41,0.50
2017,01,31,02,42,3.10
2017,01,31,02,43,3.00
2017,01,31,02,44,4.00
2017,01,31,02,45,5.60
2017,01,31,02,46,5.00
2017,01,31,02,47,5.20
2017,01,31,02,48,4.70
2017,01,31,02,49,4.00
2017,01,31,02,50,4.10
2017,01,31,02,51,4.20
2017,01,31,02,52,2.90
2017,01,31,02,53,2.80
2017,01,31,02,54,2.00
2017,01,31,02,55,0.10
2017,01,31,02,56,0.00
2017,01,31,02,57,0.00
2017,01,31,02,58,0.00
2017,01,31,02,59,0.00
2017,01,31,03,00,0.00
2017,01,31,03,01,0.50
2017,01,31,03,02,1.50
2017,01,31,03,03,0.00
2017,01,31,03,04,1.00
2017,01,31,03,05,2.30
2017,01,31,03,06,0.20
2017,01,31,03,07,0.00
2017,01,31,03,08,0.00
2017,01,31,03,09,0.00
2017,01,31,03,10,0.00
2017,01,31,03,11,0.00
2017,01,31,03,12,0.00
2017,01,31,03,13,0.00
2017,01,31,03,14,0.00
2017,01,31,03,15,0.00
2017,01,31,03,16,0.00
2017,01,31,03,17,0.00
2017,01,31,03,18,0.00
2017,01,31,03,19,0.00
2017,01,31,03,20,0.00
2017,01,31,03,21,0.00
2017,01,31,03,22,2.50
2017,01,31,03,23,2.90
2017,01,31,03,24,2.70
2017,01,31,03,25,3.30
2017,01,31,03,26,2.60
2017,01,31,03,27,2.20
2017,01,31,03,28,2.50
2017,01,31,03,29,2.00
2017,01,31,03,30,3.60
2017,01,31,03,31,2.50
2017,01,31,03,32,1.60
2017,01,31,03,33,0.00
2017,01,31,03,34,0.00
2017,01,31,03,35,0.00
2017,01,31,03,36,0.00
2017,01,31,03,37,0.00
2017,01,31,03,38,0.00
2017,01,31,03,39,0.00
2017,01,31,03,40,0.00
2017,01,31,03,41,0.30
2017,01,31,03,42,2.30
2017,01,31,03,43,2.20
2017,01,31,03,44,1.70
2017,01,31,03,45,1.00
2017,01,31,03,46,0.00
2017,01,31,03,47,0.00
2017,01,31,03,48,0.00
2017,01,31,03,49,0.00
2017,01,31,03,50,0.00
2017,01,31,03,51,0.00
2017,01,31,03,52,0.00
2017,01,31,03,53,0.00
2017,01,31,03,54,0.00
2017,01,31,03,55,0.00
2017,01,31,03,56,0.00
2017,01,31,03,57,0.00
2017,01,31,03,58,0.00
2017,01,31,03,59,0.00
2017,01,31,04,00,0.00
2017,01,31,04,01,0.00
2017,01,31,04,02,0.00
2017,01,31,04,03,0.00
2017,01,31,04,04,0.80
2017,01,31,04,05,2.00
2017,01,31,04,06,2.60
2017,01,31,04,07,1.90
2017,01,31,04,08,0.00
2017,01,31,04,09,0.00
2017,01,31,04,10,0.00
2017,01,31,04,11,0.00
2017,01,31,04,12,0.00
2017,01,31,04,13,0.00
2017,01,31,04,14,0.00
2017,01,31,04,15,0.80
2017,01,31,04,16,1.20
2017,01,31,04,17,0.00
2017,01,31,04,18,0.00
2017,01,31,04,19,0.00
2017,01,31,04,20,0.00
2017,01,31,04,21,0.00
2017,01,31,04,22,0.00
2017,01,31,04,23,0.00
2017,01,31,04,24,0.00
2017,01,31,04,25,0.00
2017,01,31,04,26,0.00
2017,01,31,04,27,0.00
2017,01,31,04,28,0.00
2017,01,31,04,29,0.00
2017,01,31,04,30,0.00
2017,01,31,04,31,0.00
2017,01,31,04,32,0.00
2017,01,31,04,33,0.00
2017,01,31,04,34,0.00
2017,01,31,04,35,0.00
2017,01,31,04,36,0.00
2017,01,31,04,37,0.00
2017,01,31,04,38,0.00
2017,01,31,04,39,0.00
2017,01,31,04,40,0.00
2017,01,31,04,41,0.00
2017,01,31,04,42,0.00
2017,01,31,04,43,0.70
2017,01,31,04,44,2.00
2017,01,31,04,45,0.70
2017,01,31,04,46,0.00
2017,01,31,04,47,0.00
2017,01,31,04,48,0.00
2017,01,31,04,49,0.00
2017,01,31,04,50,0.00
2017,01,31,04,51,0.00
2017,01,31,04,52,0.00
2017,01,31,04,53,0.00
2017,01,31,04,54,2.00
2017,01,31,04,55,1.40
2017,01,31,04,56,0.40
2017,01,31,04,57,0.00
2017,01,31,04,58,0.00
2017,01,31,04,59,0.00
2017,01,31,05,00,0.30
2017,01,31,05,01,2.30
2017,01,31,05,02,1.10
2017,01,31,05,03,0.00
2017,01,31,05,04,0.00
2017,01,31,05,05,0.00
2017,01,31,05,06,0.30
2017,01,31,05,07,1.80
2017,01,31,05,08,1.10
2017,01,31,05,09,1.70
2017,01,31,05,10,1.00
2017,01,31,05,11,0.00
2017,01,31,05,12,0.00
2017,01,31,05,13,0.00
2017,01,31,05,14,0.00
2017,01,31,05,15,0.00
2017,01,31,05,16,0.00
2017,01,31,05,17,0.00
2017,01,31,05,18,0.00
2017,01,31,05,19,0.00
2017,01,31,05,20,0.00
2017,01,31,05,21,0.00
2017,01,31,05,22,0.00
2017,01,31,05,23,0.00
2017,01,31,05,24,0.00
2017,01,31,05,25,0.00
2017,01,31,05,26,0.00
2017,01,31,05,27,0.20
2017,01,31,05,28,2.50
2017,01,31,05,29,2.40
2017,01,31,05,30,2.30
2017,01,31,05,31,1.30
2017,01,31,05,32,1.10
2017,01,31,05,33,0.10
2017,01,31,05,34,0.00
2017,01,31,05,35,0.00
2017,01,31,05,36,0.00
2017,01,31,05,37,0.00
2017,01,31,05,38,0.00
2017,01,31,05,39,0.00
2017,01,31,05,40,0.00
2017,01,31,05,41,0.00
2017,01,31,05,42,0.00
2017,01,31,05,43,0.00
2017,01,31,05,44,0.00
2017,01,31,05,45,0.90
2017,01,31,05,46,1.60
2017,01,31,05,47,1.30
2017,01,31,05,48,1.60
2017,01,31,05,49,1.90
2017,01,31,05,50,1.20
2017,01,31,05,51,0.00
2017,01,31,05,52,0.00
2017,01,31,05,53,0.00
2017,01,31,05,54,0.00
2017,01,31,05,55,0.00
2017,01,31,05,56,0.00
2017,01,31,05,57,0.00
2017,01,31,05,58,0.00
2017,01,31,05,59,0.00
2017,01,31,06,00,0.00
2017,01,31,06,01,0.00
2017,01,31,06,02,0.00
2017,01,31,06,03,0.00
2017,01,31,06,04,0.00
2017,01,31,06,05,0.00
2017,01,31,06,06,0.00
2017,01,31,06,07,0.10
2017,01,31,06,08,2.60
2017,01,31,06,09,1.40
2017,01,31,06,10,1.10
2017,01,31,06,11,0.20
2017,01,31,06,12,0.00
2017,01,31,06,13,1.50
2017,01,31,06,14,2.50
2017,01,31,06,15,2.90
2017,01,31,06,16,1.50
2017,01,31,06,17,0.90
2017,01,31,06,18,1.90
2017,01,31,06,19,2.60
2017,01,31,06,20,1.60
2017,01,31,06,21,1.30
2017,01,31,06,22,1.50
2017,01,31,06,23,0.50
2017,01,31,06,24,0.00
2017,01,31,06,25,0.00
2017,01,31,06,26,0.00
2017,01,31,06,27,0.00
2017,01,31,06,28,0.00
2017,01,31,06,29,0.00
2017,01,31,06,30,0.00
2017,01,31,06,31,0.00
2017,01,31,06,32,0.00
2017,01,31,06,33,0.00
2017,01,31,06,34,0.00
2017,01,31,06,35,0.00
2017,01,31,06,36,0.00
2017,01,31,06,37,0.00
2017,01,31,06,38,0.00
2017,01,31,06,39,0.00
2017,01,31,06,40,0.00
2017,01,31,06,41,0.00
2017,01,31,06,42,0.00
2017,01,31,06,43,0.00
2017,01,31,06,44,0.00
2017,01,31,06,45,1.00
2017,01,31,06,46,1.90
2017,01,31,06,47,0.60
2017,01,31,06,48,0.00
2017,01,31,06,49,0.00
2017,01,31,06,50,0.00
2017,01,31,06,51,0.00
2017,01,31,06,52,0.00
2017,01,31,06,53,0.00
2017,01,31,06,54,0.00
2017,01,31,06,55,0.00
2017,01,31,06,56,0.00
2017,01,31,06,57,0.70
2017,01,31,06,58,0.60
2017,01,31,06,59,0.00
2017,01,31,07,00,0.00
2017,01,31,07,01,0.00
2017,01,31,07,02,0.00
2017,01,31,07,03,0.00
2017,01,31,07,04,0.00
2017,01,31,07,05,0.00
2017,01,31,07,06,0.00
2017,01,31,07,07,0.00
2017,01,31,07,08,0.00
2017,01,31,07,09,0.00
2017,01,31,07,10,0.00
2017,01,31,07,11,0.00
2017,01,31,07,12,0.00
2017,01,31,07,13,0.00
2017,01,31,07,14,0.00
2017,01,31,07,15,0.00
2017,01,31,07,16,0.00
2017,01,31,07,17,0.00
2017,01,31,07,18,0.00
2017,01,31,07,19,0.00
2017,01,31,07,20,0.00
2017,01,31,07,21,0.00
2017,01,31,07,22,0.70
2017,01,31,07,23,2.30
2017,01,31,07,24,1.50
2017,01,31,07,25,2.30
2017,01,31,07,26,0.50
2017,01,31,07,27,0.00
2017,01,31,07,28,0.00
2017,01,31,07,29,0.00
2017,01,31,07,30,0.60
2017,01,31,07,31,3.40
2017,01,31,07,32,3.90
2017,01,31,07,33,3.20
2017,01,31,07,34,2.60
2017,01,31,07,35,3.10
2017,01,31,07,36,2.10
2017,01,31,07,37,0.00
2017,01,31,07,38,0.00
2017,01,31,07,39,0.00
2017,01,31,07,40,0.00
2017,01,31,07,41,0.00
2017,01,31,07,42,0.00
2017,01,31,07,43,0.00
2017,01,31,07,44,0.00
2017,01,31,07,45,0.70
2017,01,31,07,46,0.90
2017,01,31,07,47,0.00
2017,01,31,07,48,0.00
2017,01,31,07,49,0.00
2017,01,31,07,50,0.00
2017,01,31,07,51,0.00
2017,01,31,07,52,0.00
2017,01,31,07,53,0.00
2017,01,31,07,54,0.00
2017,01,31,07,55,0.00
2017,01,31,07,56,0.00
2017,01,31,07,57,0.00
2017,01,31,07,58,1.40
2017,01,31,07,59,2.30
2017,01,31,08,00,1.60
2017,01,31,08,01,0.00
2017,01,31,08,02,0.00
2017,01,31,08,03,0.00
2017,01,31,08,04,0.00
2017,01,31,08,05,0.00
2017,01,31,08,06,1.10
2017,01,31,08,07,0.60
2017,01,31,08,08,1.40
2017,01,31,08,09,0.50
2017,01,31,08,10,0.00
2017,01,31,08,11,1.20
2017,01,31,08,12,1.90
2017,01,31,08,13,2.00
2017,01,31,08,14,0.50
2017,01,31,08,15,0.00
2017,01,31,08,16,0.00
2017,01,31,08,17,0.00
2017,01,31,08,18,0.00
2017,01,31,08,19,0.00
2017,01,31,08,20,0.90
2017,01,31,08,21,1.70
2017,01,31,08,22,0.00
2017,01,31,08,23,0.00
2017,01,31,08,24,0.00
2017,01,31,08,25,0.00
2017,01,31,08,26,0.00
2017,01,31,08,27,0.00
2017,01,31,08,28,0.00
2017,01,31,08,29,0.00
2017,01,31,08,30,0.00
2017,01,31,08,31,0.00
2017,01,31,08,32,0.00
2017,01,31,08,33,0.00
2017,01,31,08,34,0.00
2017,01,31,08,35,0.00
2017,01,31,08,36,0.00
2017,01,31,08,37,0.00
2017,01,31,08,38,0.00
2017,01,31,08,39,0.00
2017,01,31,08,40,0.00
2017,01,31,08,41,0.00
2017,01,31,08,42,0.00
2017,01,31,08,43,0.00
2017,01,31,08,44,0.00
2017,01,31,08,45,0.00
2017,01,31,08,46,0.10
2017,01,31,08,47,3.00
2017,01,31,08,48,2.30
2017,01,31,08,49,0.00
2017,01,31,08,50,0.00
2017,01,31,08,51,0.00
2017,01,31,08,52,0.00
2017,01,31,08,53,1.90
2017,01,31,08,54,3.50
2017,01,31,08,55,3.90
2017,01,31,08,56,1.40
2017,01,31,08,57,0.50
2017,01,31,08,58,2.30
2017,01,31,08,59,2.20
2017,01,31,09,00,2.30
2017,01,31,09,01,0.60
2017,01,31,09,02,0.00
2017,01,31,09,03,0.00
2017,01,31,09,04,1.20
2017,01,31,09,05,3.00
2017,01,31,09,06,3.10
2017,01,31,09,07,3.60
2017,01,31,09,08,1.10
2017,01,31,09,09,0.00
2017,01,31,09,10,0.00
2017,01,31,09,11,0.60
2017,01,31,09,12,3.20
2017,01,31,09,13,2.80
2017,01,31,09,14,1.50
2017,01,31,09,15,0.10
2017,01,31,09,16,0.00
2017,01,31,09,17,0.50
2017,01,31,09,18,1.80
2017,01,31,09,19,0.20
2017,01,31,09,20,0.20
2017,01,31,09,21,0.00
2017,01,31,09,22,0.00
2017,01,31,09,23,0.10
2017,01,31,09,24,1.30
2017,01,31,09,25,0.60
2017,01,31,09,26,0.00
2017,01,31,09,27,0.80
2017,01,31,09,28,2.20
2017,01,31,09,29,0.00
2017,01,31,09,30,2.70
2017,01,31,09,31,1.90
2017,01,31,09,32,2.60
2017,01,31,09,33,0.50
2017,01,31,09,34,0.00
2017,01,31,09,35,0.00
2017,01,31,09,36,2.10
2017,01,31,09,37,2.90
2017,01,31,09,38,1.10
2017,01,31,09,39,0.00
2017,01,31,09,40,0.60
2017,01,31,09,41,0.00
2017,01,31,09,42,0.00
2017,01,31,09,43,0.00
2017,01,31,09,44,0.00
2017,01,31,09,45,0.00
2017,01,31,09,46,0.00
2017,01,31,09,47,2.60
2017,01,31,09,48,0.50
2017,01,31,09,49,0.00
2017,01,31,09,50,0.00
2017,01,31,09,51,0.00
2017,01,31,09,52,0.00
2017,01,31,09,53,0.00
2017,01,31,09,54,0.00
2017,01,31,09,55,0.00
2017,01,31,09,56,0.00
2017,01,31,09,57,0.70
2017,01,31,09,58,0.80
2017,01,31,09,59,0.00
2017,01,31,10,00,0.00
2017,01,31,10,01,0.00
2017,01,31,10,02,0.00
2017,01,31,10,03,0.00
2017,01,31,10,04,1.00
2017,01,31,10,05,0.00
2017,01,31,10,06,0.00
2017,01,31,10,07,0.00
2017,01,31,10,08,0.00
2017,01,31,10,09,0.00
2017,01,31,10,10,0.00
2017,01,31,10,11,0.00
2017,01,31,10,12,0.00
2017,01,31,10,13,0.00
2017,01,31,10,14,3.50
2017,01,31,10,15,1.60
2017,01,31,10,16,3.90
2017,01,31,10,17,2.80
2017,01,31,10,18,1.60
2017,01,31,10,19,1.50
2017,01,31,10,20,0.00
2017,01,31,10,21,0.30
2017,01,31,10,22,1.40
2017,01,31,10,23,0.90
2017,01,31,10,24,0.00
2017,01,31,10,25,0.00
2017,01,31,10,26,0.00
2017,01,31,10,27,0.00
2017,01,31,10,28,0.00
2017,01,31,10,29,0.00
2017,01,31,10,30,0.00
2017,01,31,10,31,0.00
2017,01,31,10,32,0.00
2017,01,31,10,33,0.00
2017,01,31,10,34,0.00
2017,01,31,10,35,0.00
2017,01,31,10,36,0.40
2017,01,31,10,37,1.60
2017,01,31,10,38,0.00
2017,01,31,10,39,0.00
2017,01,31,10,40,0.00
2017,01,31,10,41,0.00
2017,01,31,10,42,0.00
2017,01,31,10,43,0.00
2017,01,31,10,44,0.90
2017,01,31,10,45,0.70
2017,01,31,10,46,1.40
2017,01,31,10,47,0.00
2017,01,31,10,48,0.00
2017,01,31,10,49,0.00
2017,01,31,10,50,0.00
2017,01,31,10,51,0.20
2017,01,31,10,52,2.20
2017,01,31,10,53,1.10
2017,01,31,10,54,0.00
2017,01,31,10,55,0.00
2017,01,31,10,56,0.00
2017,01,31,10,57,0.70
2017,01,31,10,58,1.40
2017,01,31,10,59,1.50
2017,01,31,11,00,2.30
2017,01,31,11,01,3.60
2017,01,31,11,02,3.10
2017,01,31,11,03,1.40
2017,01,31,11,04,1.90
2017,01,31,11,05,2.70
2017,01,31,11,06,0.00
2017,01,31,11,07,0.00
2017,01,31,11,08,0.00
2017,01,31,11,09,0.00
2017,01,31,11,10,0.00
2017,01,31,11,11,0.00
2017,01,31,11,12,0.00
2017,01,31,11,13,0.00
2017,01,31,11,14,0.00
2017,01,31,11,15,0.00
2017,01,31,11,16,0.00
2017,01,31,11,17,0.00
2017,01,31,11,18,0.00
2017,01,31,11,19,0.00
2017,01,31,11,20,0.00
2017,01,31,11,21,0.00
2017,01,31,11,22,0.00
2017,01,31,11,23,0.00
2017,01,31,11,24,0.00
2017,01,31,11,25,1.80
2017,01,31,11,26,1.00
2017,01,31,11,27,0.00
2017,01,31,11,28,0.70
2017,01,31,11,29,4.60
2017,01,31,11,30,4.50
2017,01,31,11,31,4.80
2017,01,31,11,32,1.20
2017,01,31,11,33,2.20
2017,01,31,11,34,3.90
2017,01,31,11,35,3.50
2017,01,31,11,36,7.60
2017,01,31,11,37,6.20
2017,01,31,11,38,6.60
2017,01,31,11,39,5.60
2017,01,31,11,40,6.40
2017,01,31,11,41,5.10
2017,01,31,11,42,4.70
2017,01,31,11,43,9.00
2017,01,31,11,44,8.80
2017,01,31,11,45,1.60
2017,01,31,11,46,5.40
2017,01,31,11,47,10.10
2017,01,31,11,48,15.00
2017,01,31,11,49,8.70
2017,01,31,11,50,10.00
2017,01,31,11,51,7.50
2017,01,31,11,52,8.70
2017,01,31,11,53,4.60
2017,01,31,11,54,5.90
2017,01,31,11,55,9.80
2017,01,31,11,56,15.80
2017,01,31,11,57,8.80
2017,01,31,11,58,6.20
2017,01,31,11,59,7.30
2017,01,31,12,00,8.40
2017,01,31,12,01,11.20
2017,01,31,12,02,12.40
2017,01,31,12,03,16.20
2017,01,31,12,04,15.30
2017,01,31,12,05,8.40
2017,01,31,12,06,13.00
2017,01,31,12,07,13.30
2017,01,31,12,08,10.00
2017,01,31,12,09,3.90
2017,01,31,12,10,11.60
2017,01,31,12,11,12.90
2017,01,31,12,12,8.70
2017,01,31,12,13,4.70
2017,01,31,12,14,6.10
2017,01,31,12,15,12.00
2017,01,31,12,16,9.80
2017,01,31,12,17,7.90
2017,01,31,12,18,10.00
2017,01,31,12,19,8.50
2017,01,31,12,20,7.70
2017,01,31,12,21,7.80
2017,01,31,12,22,10.20
2017,01,31,12,23,6.50
2017,01,31,12,24,3.90
2017,01,31,12,25,14.50
2017,01,31,12,26,10.70
2017,01,31,12,27,15.10
2017,01,31,12,28,3.10
2017,01,31,12,29,12.20
2017,01,31,12,30,8.80
2017,01,31,12,31,11.70
2017,01,31,12,32,15.20
2017,01,31,12,33,14.60
2017,01,31,12,34,18.40
2017,01,31,12,35,12.20
2017,01,31,12,36,9.20
2017,01,31,12,37,8.20
2017,01,31,12,38,8.00
2017,01,31,12,39,6.90
2017,01,31,12,40,6.90
2017,01,31,12,41,6.80
2017,01,31,12,42,11.20
2017,01,31,12,43,7.00
2017,01,31,12,44,10.90
2017,01,31,12,45,11.80
2017,01,31,12,46,18.50
2017,01,31,12,47,15.40
2017,01,31,12,48,10.50
2017,01,31,12,49,2.80
2017,01,31,12,50,3.40
2017,01,31,12,51,12.10
2017,01,31,12,52,7.10
2017,01,31,12,53,5.60
2017,01,31,12,54,9.70
2017,01,31,12,55,9.60
2017,01,31,12,56,7.60
2017,01,31,12,57,4.40
2017,01,31,12,58,10.50
2017,01,31,12,59,14.40
2017,01,31,13,00,8.90
2017,01,31,13,01,7.00
2017,01,31,13,02,11.40
2017,01,31,13,03,10.90
2017,01,31,13,04,13.50
2017,01,31,13,05,5.50
2017,01,31,13,06,4.00
2017,01,31,13,07,8.90
2017,01,31,13,08,9.40
2017,01,31,13,09,12.30
2017,01,31,13,10,13.80
2017,01,31,13,11,10.80
2017,01,31,13,12,9.00
2017,01,31,13,13,7.30
2017,01,31,13,14,7.60
2017,01,31,13,15,5.70
2017,01,31,13,16,14.70
2017,01,31,13,17,11.80
2017,01,31,13,18,11.70
2017,01,31,13,19,5.50
2017,01,31,13,20,5.80
2017,01,31,13,21,7.90
2017,01,31,13,22,11.20
2017,01,31,13,23,16.70
2017,01,31,13,24,16.30
2017,01,31,13,25,10.90
2017,01,31,13,26,3.00
2017,01,31,13,27,0.20
2017,01,31,13,28,4.80
2017,01,31,13,29,5.10
2017,01,31,13,30,5.70
2017,01,31,13,31,9.30
2017,01,31,13,32,9.80
2017,01,31,13,33,8.50
2017,01,31,13,34,7.60
2017,01,31,13,35,11.30
2017,01,31,13,36,16.30
2017,01,31,13,37,8.60
2017,01,31,13,38,7.50
2017,01,31,13,39,6.40
2017,01,31,13,40,8.10
2017,01,31,13,41,5.80
2017,01,31,13,42,4.10
2017,01,31,13,43,11.10
2017,01,31,13,44,5.50
2017,01,31,13,45,8.00
2017,01,31,13,46,7.20
2017,01,31,13,47,13.80
2017,01,31,13,48,12.10
2017,01,31,13,49,11.30
2017,01,31,13,50,13.30
2017,01,31,13,51,12.40
2017,01,31,13,52,15.80
2017,01,31,13,53,9.30
2017,01,31,13,54,5.50
2017,01,31,13,55,3.30
2017,01,31,13,56,5.60
2017,01,31,13,57,6.30
2017,01,31,13,58,8.80
2017,01,31,13,59,12.60
2017,01,31,14,00,4.70
2017,01,31,14,01,9.80
2017,01,31,14,02,7.50
2017,01,31,14,03,4.80
2017,01,31,14,04,4.40
2017,01,31,14,05,3.90
2017,01,31,14,06,5.70
2017,01,31,14,07,0.30
2017,01,31,14,08,1.10
2017,01,31,14,09,1.00
2017,01,31,14,10,0.00
2017,01,31,14,11,1.40
2017,01,31,14,12,6.10
2017,01,31,14,13,6.10
2017,01,31,14,14,2.10
2017,01,31,14,15,2.90
2017,01,31,14,16,2.60
2017,01,31,14,17,5.60
2017,01,31,14,18,3.10
2017,01,31,14,19,5.10
2017,01,31,14,20,3.90
2017,01,31,14,21,0.00
2017,01,31,14,22,0.30
2017,01,31,14,23,3.20
2017,01,31,14,24,1.20
2017,01,31,14,25,0.00
2017,01,31,14,26,0.50
2017,01,31,14,27,0.70
2017,01,31,14,28,0.00
2017,01,31,14,29,0.00
2017,01,31,14,30,0.00
2017,01,31,14,31,3.10
2017,01,31,14,32,2.60
2017,01,31,14,33,0.40
2017,01,31,14,34,1.10
2017,01,31,14,35,0.20
2017,01,31,14,36,3.60
2017,01,31,14,37,0.50
2017,01,31,14,38,5.30
2017,01,31,14,39,4.30
2017,01,31,14,40,0.80
2017,01,31,14,41,9.30
2017,01,31,14,42,12.90
2017,01,31,14,43,18.20
2017,01,31,14,44,6.70
2017,01,31,14,45,4.80
2017,01,31,14,46,7.60
2017,01,31,14,47,8.40
2017,01,31,14,48,1.20
2017,01,31,14,49,2.10
2017,01,31,14,50,2.70
2017,01,31,14,51,4.10
2017,01,31,14,52,2.40
2017,01,31,14,53,2.70
2017,01,31,14,54,3.10
2017,01,31,14,55,1.40
2017,01,31,14,56,2.30
2017,01,31,14,57,2.00
2017,01,31,14,58,3.90
2017,01,31,14,59,5.90
2017,01,31,15,00,1.80
2017,01,31,15,01,5.20
2017,01,31,15,02,3.00
2017,01,31,15,03,5.70
2017,01,31,15,04,4.90
2017,01,31,15,05,3.60
2017,01,31,15,06,3.30
2017,01,31,15,07,6.10
2017,01,31,15,08,5.30
2017,01,31,15,09,3.80
2017,01,31,15,10,2.80
2017,01,31,15,11,3.80
2017,01,31,15,12,1.00
2017,01,31,15,13,0.60
2017,01,31,15,14,2.70
2017,01,31,15,15,2.70
2017,01,31,15,16,0.20
2017,01,31,15,17,0.70
2017,01,31,15,18,1.70
2017,01,31,15,19,3.10
2017,01,31,15,20,0.00
2017,01,31,15,21,1.00
2017,01,31,15,22,2.20
2017,01,31,15,23,6.80
2017,01,31,15,24,7.80
2017,01,31,15,25,2.60
2017,01,31,15,26,2.80
2017,01,31,15,27,3.90
2017,01,31,15,28,1.70
2017,01,31,15,29,1.90
2017,01,31,15,30,1.50
2017,01,31,15,31,1.60
2017,01,31,15,32,0.40
2017,01,31,15,33,0.00
2017,01,31,15,34,0.00
2017,01,31,15,35,0.00
2017,01,31,15,36,0.90
2017,01,31,15,37,2.10
2017,01,31,15,38,2.90
2017,01,31,15,39,1.60
2017,01,31,15,40,4.70
2017,01,31,15,41,3.60
2017,01,31,15,42,1.80
2017,01,31,15,43,0.20
2017,01,31,15,44,8.40
2017,01,31,15,45,5.50
2017,01,31,15,46,5.40
2017,01,31,15,47,2.70
2017,01,31,15,48,2.60
2017,01,31,15,49,10.60
2017,01,31,15,50,9.70
2017,01,31,15,51,3.10
2017,01,31,15,52,5.80
2017,01,31,15,53,2.30
2017,01,31,15,54,4.10
2017,01,31,15,55,1.10
2017,01,31,15,56,2.40
2017,01,31,15,57,2.60
2017,01,31,15,58,3.20
2017,01,31,15,59,3.30
2017,01,31,16,00,5.30
2017,01,31,16,01,1.90
2017,01,31,16,02,1.80
2017,01,31,16,03,1.60
2017,01,31,16,04,3.60
2017,01,31,16,05,2.70
2017,01,31,16,06,6.00
2017,01,31,16,07,2.50
2017,01,31,16,08,0.80
2017,01,31,16,09,2.50
2017,01,31,16,10,1.20
2017,01,31,16,11,4.60
2017,01,31,16,12,1.90
2017,01,31,16,13,2.90
2017,01,31,16,14,5.00
2017,01,31,16,15,2.10
2017,01,31,16,16,2.20
2017,01,31,16,17,5.20
2017,01,31,16,18,3.10
2017,01,31,16,19,4.30
2017,01,31,16,20,6.10
2017,01,31,16,21,1.00
2017,01,31,16,22,0.20
2017,01,31,16,23,0.00
2017,01,31,16,24,3.20
2017,01,31,16,25,1.60
2017,01,31,16,26,1.10
2017,01,31,16,27,1.00
2017,01,31,16,28,2.10
2017,01,31,16,29,1.90
2017,01,31,16,30,3.80
2017,01,31,16,31,0.00
2017,01,31,16,32,0.60
2017,01,31,16,33,1.50
2017,01,31,16,34,1.90
2017,01,31,16,35,2.10
2017,01,31,16,36,3.30
2017,01,31,16,37,3.40
2017,01,31,16,38,0.20
2017,01,31,16,39,3.90
2017,01,31,16,40,2.20
2017,01,31,16,41,0.10
2017,01,31,16,42,1.40
2017,01,31,16,43,1.20
2017,01,31,16,44,2.80
2017,01,31,16,45,4.90
2017,01,31,16,46,6.00
2017,01,31,16,47,1.50
2017,01,31,16,48,1.00
2017,01,31,16,49,0.00
2017,01,31,16,50,0.00
2017,01,31,16,51,0.60
2017,01,31,16,52,0.00
2017,01,31,16,53,0.00
2017,01,31,16,54,0.00
2017,01,31,16,55,0.00
2017,01,31,16,56,0.00
2017,01,31,16,57,0.70
2017,01,31,16,58,0.80
2017,01,31,16,59,3.50
2017,01,31,17,00,2.40
2017,01,31,17,01,0.00
2017,01,31,17,02,0.00
2017,01,31,17,03,0.00
2017,01,31,17,04,0.00
2017,01,31,17,05,0.00
2017,01,31,17,06,0.00
2017,01,31,17,07,0.90
2017,01,31,17,08,3.40
2017,01,31,17,09,0.70
2017,01,31,17,10,2.40
2017,01,31,17,11,1.90
2017,01,31,17,12,0.60
2017,01,31,17,13,0.00
2017,01,31,17,14,0.00
2017,01,31,17,15,2.10
2017,01,31,17,16,1.90
2017,01,31,17,17,0.30
2017,01,31,17,18,0.00
2017,01,31,17,19,1.00
2017,01,31,17,20,3.00
2017,01,31,17,21,1.20
2017,01,31,17,22,2.40
2017,01,31,17,23,0.60
2017,01,31,17,24,0.60
2017,01,31,17,25,0.00
2017,01,31,17,26,0.50
2017,01,31,17,27,3.40
2017,01,31,17,28,1.90
2017,01,31,17,29,1.50
2017,01,31,17,30,1.80
2017,01,31,17,31,1.90
2017,01,31,17,32,4.30
2017,01,31,17,33,3.80
2017,01,31,17,34,3.10
2017,01,31,17,35,4.70
2017,01,31,17,36,2.60
2017,01,31,17,37,0.20
2017,01,31,17,38,0.00
2017,01,31,17,39,0.00
2017,01,31,17,40,0.00
2017,01,31,17,41,0.00
2017,01,31,17,42,0.00
2017,01,31,17,43,0.00
2017,01,31,17,44,0.00
2017,01,31,17,45,0.00
2017,01,31,17,46,0.00
2017,01,31,17,47,1.80
2017,01,31,17,48,2.20
2017,01,31,17,49,0.00
2017,01,31,17,50,1.60
2017,01,31,17,51,2.70
2017,01,31,17,52,2.80
2017,01,31,17,53,3.20
2017,01,31,17,54,2.30
2017,01,31,17,55,0.50
2017,01,31,17,56,0.00
2017,01,31,17,57,1.20
2017,01,31,17,58,3.50
2017,01,31,17,59,3.70
2017,01,31,18,00,7.80
2017,01,31,18,01,4.70
2017,01,31,18,02,1.20
2017,01,31,18,03,2.60